Change the Weather History Date:

Monday, October 14, 2013

  Actual Average Record
Temperature  
Mean Temperature 65 °F -  
Max Temperature 69 °F 75 °F 90 °F (1954)
Min Temperature 61 °F 52 °F 32 °F (2006)
Growing Degree Days 15 (Base 50)    
Moisture  
Dew Point 61 °F    
Average Humidity 89    
Maximum Humidity 100    
Minimum Humidity 75    
Precipitation  
Precipitation 0.04 in - - ()
Sea Level Pressure  
Sea Level Pressure 30.20 in    
Wind  
Wind Speed 6 mph (NE)    
Max Wind Speed 10 mph    
Max Gust Speed -    
Visibility 8 miles    
Events Rain    
Averages and records for this station are not official NWS values.
T = Trace of Precipitation, MM = Missing Value Source: NWS Daily Summary

Daily Weather History Graph

Daily Weather History Graph

Search for Another Location

Airport or City:

Trip Planner

Search our weather history database for the weather conditions in past years. The results will help you decide how hot, cold, wet, or windy it might be!

Date:

Astronomy

Oct. 14, 2013 Rise Set
Actual Time 7:29 AM EDT 6:50 PM EDT
Civil Twilight 7:04 AM EDT 7:15 PM EDT
Nautical Twilight 6:34 AM EDT 7:45 PM EDT
Astronomical Twilight 6:05 AM EDT 8:14 PM EDT
Moon 4:10 PM EDT (10/14) 2:54 AM EDT (10/14)
Length of Visible Light 12h 11m
Length of Day
11h 20m
Waxing Gibbous, 79% of the Moon is Illuminated
Oct 14
Waxing Gibbous
Oct 18
Full
Oct 26
Last Quarter
Nov 3
New
Nov 10
First Quarter

Hourly Weather History & Observations

Time (EDT) Temp. Dew Point Humidity Pressure Visibility Wind Dir Wind Speed Gust Speed Precip Events Conditions
12:39 AM 64.9 °F 61.0 °F 87% 30.22 in 10.0 mi NE 4.6 mph - N/A   Overcast
12:54 AM 64.9 °F 61.0 °F 87% 30.19 in 10.0 mi Variable 4.6 mph - N/A   Overcast
1:54 AM 64.9 °F 61.0 °F 87% 30.18 in 10.0 mi ENE 6.9 mph - N/A   Overcast
2:54 AM 64.0 °F 61.0 °F 90% 30.18 in 10.0 mi NNE 5.8 mph - N/A   Overcast
3:47 AM 62.1 °F 61.0 °F 96% 30.20 in 5.0 mi NNE 6.9 mph - 0.01 in Rain Light Rain
3:54 AM 62.1 °F 61.0 °F 96% 30.18 in 4.0 mi NNE 6.9 mph - 0.01 in Rain Light Rain
4:54 AM 62.1 °F 61.0 °F 96% 30.18 in 5.0 mi NNE 10.4 mph - 0.00 in   Overcast
5:54 AM 62.1 °F 60.1 °F 93% 30.18 in 10.0 mi NNE 6.9 mph - N/A   Overcast
6:54 AM 61.0 °F 60.1 °F 97% 30.19 in 4.0 mi NNE 10.4 mph - N/A   Overcast
7:54 AM 61.0 °F 60.1 °F 97% 30.21 in 10.0 mi NNE 9.2 mph - N/A   Overcast
8:54 AM 61.0 °F 61.0 °F 100% 30.23 in 2.0 mi NNE 6.9 mph - 0.02 in Rain Light Rain
9:05 AM 62.1 °F 61.0 °F 96% 30.25 in 6.0 mi NNE 5.8 mph - 0.00 in   Overcast
9:34 AM 62.1 °F 61.0 °F 96% 30.25 in 1.8 mi NNE 5.8 mph - 0.00 in Rain Light Rain
9:47 AM 62.1 °F 61.0 °F 96% 30.26 in 3.0 mi NNE 4.6 mph - 0.00 in Rain Light Rain
9:54 AM 62.1 °F 61.0 °F 96% 30.24 in 9.0 mi NNE 6.9 mph - 0.01 in   Overcast
10:54 AM 63.0 °F 62.1 °F 97% 30.23 in 10.0 mi NE 5.8 mph - N/A   Overcast
11:54 AM 64.0 °F 61.0 °F 90% 30.22 in 10.0 mi NE 6.9 mph - N/A   Overcast
12:27 PM 64.0 °F 62.1 °F 93% 30.23 in 2.0 mi Variable 4.6 mph - 0.00 in Rain Light Rain
12:35 PM 64.0 °F 62.1 °F 93% 30.23 in 7.0 mi Variable 5.8 mph - 0.00 in Rain Light Rain
12:54 PM 66.0 °F 62.1 °F 87% 30.20 in 10.0 mi Variable 6.9 mph - 0.00 in   Overcast
1:47 PM 66.0 °F 62.1 °F 87% 30.21 in 10.0 mi NE 6.9 mph - N/A   Overcast
1:54 PM 66.0 °F 62.1 °F 87% 30.19 in 9.0 mi Variable 3.5 mph - 0.00 in Rain Light Rain
2:54 PM 68.0 °F 62.1 °F 81% 30.17 in 10.0 mi NNE 6.9 mph - 0.00 in   Overcast
3:54 PM 66.9 °F 61.0 °F 81% 30.16 in 10.0 mi NE 6.9 mph - N/A   Overcast
4:54 PM 69.1 °F 61.0 °F 75% 30.16 in 10.0 mi ENE 5.8 mph - N/A   Overcast
5:11 PM 69.1 °F 61.0 °F 75% 30.17 in 10.0 mi Variable 4.6 mph - N/A   Overcast
5:24 PM 68.0 °F 61.0 °F 78% 30.18 in 10.0 mi Variable 5.8 mph - N/A   Overcast
5:54 PM 66.9 °F 61.0 °F 81% 30.16 in 10.0 mi Variable 3.5 mph - N/A   Overcast
6:54 PM 66.0 °F 60.1 °F 81% 30.17 in 10.0 mi Variable 3.5 mph - N/A   Overcast
7:54 PM 64.9 °F 60.1 °F 84% 30.19 in 10.0 mi Variable 3.5 mph - N/A   Overcast
8:54 PM 64.9 °F 60.1 °F 84% 30.20 in 10.0 mi Calm Calm - N/A   Overcast
9:54 PM 64.0 °F 59.0 °F 84% 30.21 in 10.0 mi Variable 3.5 mph - N/A   Overcast
10:26 PM 63.0 °F 57.9 °F 84% 30.23 in 10.0 mi Variable 3.5 mph - N/A   Mostly Cloudy
10:54 PM 64.0 °F 59.0 °F 84% 30.21 in 10.0 mi East 4.6 mph - N/A   Overcast
11:30 PM 63.0 °F 59.0 °F 87% 30.22 in 10.0 mi East 3.5 mph - N/A   Overcast
11:54 PM 63.0 °F 57.9 °F 84% 30.19 in 10.0 mi Calm Calm - N/A   Overcast